Bartow, Florida, United States (33830)
Lat: 27.90N, Lon: 81.84W
Wx Zone: FLZ052
Local Info
Past Weather Observations for Tuesday, November 18, 2014

NOTE: This archive is for the closest National Weather Service station to Bartow. Information may differ from the station used for current weather conditions.

Click here for Long-term Archive

Time Weather Temperature Dewpoint Humidity Pressure Winds Precip Visibility
23:55
Clear
45°F / 7°C 34°F / 1°C 66% 30.3 in
(1026 mb)
N 10.4 mph
(N 17 kph)
- 10SM
23:35
Clear
46°F / 8°C 32°F / 0°C 57% 30.33 in
(1027 mb)
N 9.2 mph
(N 15 kph)
- 10SM
23:15
Clear
46°F / 8°C 34°F / 1°C 62% 30.3 in
(1026 mb)
N 9.2 mph
(N 15 kph)
- 10SM
22:55
Clear
46°F / 8°C 36°F / 2°C 66% 30.3 in
(1026 mb)
N 5.8 mph
(N 9 kph)
- 10SM
22:35
Clear
46°F / 8°C 36°F / 2°C 66% 30.33 in
(1027 mb)
N 4.6 mph
(N 7 kph)
- 10SM
22:15
Clear
46°F / 8°C 36°F / 2°C 66% 30.3 in
(1026 mb)
N 4.6 mph
(N 7 kph)
- 10SM
21:55
Clear
46°F / 8°C 36°F / 2°C 66% 30.3 in
(1026 mb)
N 6.9 mph
(N 11 kph)
- 10SM
21:35
Clear
45°F / 7°C 37°F / 3°C 76% 30.3 in
(1026 mb)
N 3.5 mph
(N 6 kph)
- 10SM
21:15
Clear
45°F / 7°C 37°F / 3°C 76% 30.3 in
(1026 mb)
NW 4.6 mph
(NW 7 kph)
- 10SM
20:55
Clear
46°F / 8°C 36°F / 2°C 66% 30.3 in
(1026 mb)
NW 3.5 mph
(NW 6 kph)
- 10SM
20:35
Clear
46°F / 8°C 36°F / 2°C 66% 30.3 in
(1026 mb)
N 3.5 mph
(N 6 kph)
- 10SM
20:15
Clear
46°F / 8°C 36°F / 2°C 66% 30.3 in
(1026 mb)
NNE 3.5 mph
(NNE 6 kph)
- 10SM
19:55
Clear
46°F / 8°C 36°F / 2°C 66% 30.3 in
(1026 mb)
N 3.5 mph
(N 6 kph)
- 10SM
19:35
Clear
46°F / 8°C 36°F / 2°C 66% 30.3 in
(1026 mb)
N 4.6 mph
(N 7 kph)
- 10SM
19:15
Clear
46°F / 8°C 36°F / 2°C 66% 30.27 in
(1025 mb)
NNW 3.5 mph
(NNW 6 kph)
- 10SM
18:55
Clear
46°F / 8°C 36°F / 2°C 66% 30.27 in
(1025 mb)
NNW 4.6 mph
(NNW 7 kph)
- 10SM
18:35
Clear
46°F / 8°C 36°F / 2°C 66% 30.27 in
(1025 mb)
NNW 3.5 mph
(NNW 6 kph)
- 10SM
18:15
Clear
46°F / 8°C 36°F / 2°C 66% 30.27 in
(1025 mb)
NNW 6.9 mph
(NNW 11 kph)
- 10SM
17:55
Clear
48°F / 9°C 34°F / 1°C 58% 30.27 in
(1025 mb)
NNW 5.8 mph
(NNW 9 kph)
- 10SM
17:35
Clear
48°F / 9°C 32°F / 0°C 54% 30.27 in
(1025 mb)
NNW 8.1 mph
(NNW 13 kph)
- 10SM
16:45
Mostly Cloudy
48°F / 9°C 32°F / 0°C 54% 30.24 in
(1024 mb)
N 9.2 mph
(N 15 kph)
- 10SM
15:52
Mostly Cloudy
48°F / 9°C 32°F / 0°C 54% 30.21 in
(1023 mb)
N 6.9 mph
(N 11 kph)
- 10SM
14:55
Mostly Cloudy
48°F / 9°C 36°F / 2°C 62% 30.21 in
(1023 mb)
N 8.1 mph
(N 13 kph)
- 10SM
13:47
Overcast
46°F / 8°C 36°F / 2°C 66% 30.21 in
(1023 mb)
N 9.2 mph
(N 15 kph)
- 10SM
12:52
Overcast
45°F / 7°C 37°F / 3°C 76% 30.21 in
(1023 mb)
NE 5.8 mph
(NE 9 kph)
- 10SM
11:47
Overcast
50°F / 10°C 37°F / 3°C 62% 30.24 in
(1024 mb)
NNW 4.6 mph
(NNW 7 kph)
- 10SM
10:47
Overcast
50°F / 10°C 41°F / 5°C 71% 30.24 in
(1024 mb)
N 6.9 mph
(N 11 kph)
- 10SM
09:47
Overcast
48°F / 9°C 43°F / 6°C 82% 30.21 in
(1023 mb)
N 9.2 mph
(N 15 kph)
- 10SM
08:56
Overcast
50°F / 10°C 43°F / 6°C 76% 30.21 in
(1023 mb)
N 10.4 mph
(N 17 kph)
- 10SM
07:47
Overcast
50°F / 10°C 46°F / 8°C 88% 30.15 in
(1021 mb)
N 21.9 mph
(N 35 kph)
- 10SM
07:15
Overcast
52°F / 11°C 50°F / 10°C 94% 30.12 in
(1020 mb)
NNW 8.1 mph
(NNW 13 kph)
- 10SM
06:55
Overcast
52°F / 11°C 52°F / 11°C 100% 30.12 in
(1020 mb)
N 9.2 mph
(N 15 kph)
- 10SM
06:35
Overcast
54°F / 12°C 54°F / 12°C 100% 30.12 in
(1020 mb)
N 9.2 mph
(N 15 kph)
- 10SM
06:15
Overcast
54°F / 12°C 54°F / 12°C 100% 30.09 in
(1019 mb)
NNW 10.4 mph
(NNW 17 kph)
- 10SM
05:55
Overcast
Fog And Mist
55°F / 13°C 55°F / 13°C 100% 30.09 in
(1019 mb)
NNW 11.5 mph
(NNW 19 kph)
- 2SM
05:15
Overcast
Fog And Mist
59°F / 15°C 59°F / 15°C 100% 30.06 in
(1018 mb)
NW 8.1 mph
(NW 13 kph)
- 3SM
04:55
Overcast
Fog And Mist
59°F / 15°C 59°F / 15°C 100% 30.06 in
(1018 mb)
NW 9.2 mph
(NW 15 kph)
- 2 1/2SM
04:35
Overcast
59°F / 15°C 59°F / 15°C 100% 30.04 in
(1017 mb)
NW 6.9 mph
(NW 11 kph)
- 8SM
04:15
Overcast
59°F / 15°C 59°F / 15°C 100% 30.04 in
(1017 mb)
NW 6.9 mph
(NW 11 kph)
- 10SM
03:55
Overcast
59°F / 15°C 59°F / 15°C 100% 30.04 in
(1017 mb)
NW 6.9 mph
(NW 11 kph)
- 7SM
03:35
Overcast
Fog And Mist
57°F / 14°C 57°F / 14°C 100% 30.04 in
(1017 mb)
NW 8.1 mph
(NW 13 kph)
- 4SM
03:15
Overcast
Hazy
57°F / 14°C N/A N/A 30.04 in
(1017 mb)
NW 12.7 mph
(NW 20 kph)
- 6SM
02:55
Overcast
Fog And Mist
59°F / 15°C N/A N/A 30.01 in
(1016 mb)
NW 13.8 mph
(NW 22 kph)
- 2 1/2SM
02:35
Overcast
Hazy
61°F / 16°C N/A N/A 30.01 in
(1016 mb)
NW 13.8 mph
(NW 22 kph)
- 4SM
02:15
Overcast
63°F / 17°C N/A N/A 30.01 in
(1016 mb)
NW 12.7 mph
(NW 20 kph)
- 9SM
01:55
Overcast
Fog And Mist
63°F / 17°C N/A N/A 29.98 in
(1015 mb)
NW 10.4 mph
(NW 17 kph)
- 2SM
01:35
Overcast
Light Rain
66°F / 19°C N/A N/A 30.01 in
(1016 mb)
NW 10.4 mph
(NW 17 kph)
- 2SM
01:15
Mostly Cloudy
66°F / 19°C N/A N/A 30.01 in
(1016 mb)
SSW 6.9 mph
(SSW 11 kph)
- 8SM
00:55
Mostly Cloudy
66°F / 19°C N/A N/A 30.01 in
(1016 mb)
SW 6.9 mph
(SW 11 kph)
- 10SM
00:35
Mostly Cloudy
66°F / 19°C N/A N/A 30.01 in
(1016 mb)
SW 6.9 mph
(SW 11 kph)
- 10SM
00:15
Overcast
66°F / 19°C N/A N/A 30.01 in
(1016 mb)
SW 6.9 mph
(SW 11 kph)
- 10SM
Time Weather Temperature Dewpoint Humidity Pressure Winds Precip Visibility


Weather for websites

WeatherForYou.com, LLC is not responsible for any damages or problems caused by this service. Current weather conditions are obtained from the closest station including government and personal stations which may have varying degrees of accuracy. Weather forecasts are derived from the NOAA NDFD. Like all things, this site belongs to Jesus Christ... He just trusts me to maintain it. If you have any questions or comments email webmaster@weatherforyou.com

Copyright © 2014, WeatherForYou.com LLC. All rights reserved.